Home > Weather > Bydgoszcz > Past weeks

Flag for Poland Past Weather in Bydgoszcz, Poland — Yesterday and Last 2 Weeks

Now
76 °F

Thunderstorms. Partly sunny.


Feels Like: 78 °F
Forecast: 62 / 78 °F
Wind: 2 mph from Northeast

Location: Torun

Current Time: Jun 25, 2016 at 9:37:40 PM

Latest Report: Jun 25, 2016 at 8:00 PM


Visibility: 28 mi

Pressure: 29.80 "Hg

Humidity: 63%

Dew Point: 62 °F

Location of BydgoszczLocation

Past Weather in Bydgoszcz — Graph

°F

Bydgoszcz Temperature Yesterday

Maximum temperature yesterday: 89 °F (at 4:00 PM)
Minimum temperature yesterday: 66 °F (at 5:00 AM)
Average temperature yesterday: 79 °F

High & Low Weather Summary for the Past Weeks

 TemperatureHumidityPressure
High94 °F (Jun 25, 4:00 PM)97% (Jun 21, 2:00 AM)30.32 "Hg (Jun 21, 2:00 AM)
Low41 °F (Jun 11, 5:00 AM)27% (Jun 11, 4:00 PM)29.35 "Hg (Jun 17, 11:00 AM)
Average66 °F62%29.91 "Hg
* Reported Jun 10 8:00 PM — Jun 25 8:00 PM, Bydgoszcz, Weather by CustomWeather, © 2016

Note: Actual official high and low records may vary slightly from our data, if they occured in-between our weather recording intervals... More about our weather records

Advertising

Bydgoszcz Weather History for the Previous 24 Hours

Scroll right to see more
 ConditionsComfort  
Time TempWeatherWind HumidityBarometerVisibility
8:00 PM
Sat, Jun 25
76 °FThunderstorms. Partly sunny.2 mph63%29.80 "Hg28 mi
7:00 PM83 °FThunderstorms. Overcast.5 mph45%29.85 "Hg19 mi
6:00 PM90 °FPartly sunny.5 mph39%29.80 "Hg19 mi
5:00 PM92 °FPartly sunny.6 mph36%29.81 "Hg15 mi
4:00 PM94 °FPartly sunny.6 mph33%29.82 "Hg19 mi
3:00 PM92 °FPartly sunny.6 mph37%29.85 "Hg17 mi
2:00 PM90 °FPartly sunny.5 mph45%29.88 "Hg14 mi
1:00 PM91 °FPartly sunny.3 mph42%29.90 "Hg14 mi
12:00 PM90 °FScattered clouds.6 mph42%29.92 "Hg11 mi
11:00 AM89 °FScattered clouds.5 mph47%29.93 "Hg15 mi
10:00 AM85 °FScattered clouds.3 mph54%29.94 "Hg12 mi
9:00 AM80 °FPartly sunny.2 mph68%29.95 "Hg12 mi
8:00 AM79 °FPartly sunny.2 mph67%29.96 "Hg12 mi
7:00 AM76 °FPassing clouds.3 mph73%29.97 "Hg11 mi
6:00 AM73 °FPassing clouds.2 mph78%29.98 "Hg9 mi
5:00 AM71 °FPassing clouds.2 mph81%29.99 "Hg8 mi
4:00 AM71 °FClear.2 mph79%30.00 "Hg9 mi
3:00 AM71 °FClear.2 mph76%30.00 "Hg9 mi
2:00 AM73 °FClear.1 mph72%30.01 "Hg11 mi
1:00 AM72 °FClear.2 mph77%30.03 "Hg9 mi
12:00 AM71 °FClear.1 mph77%30.03 "Hg8 mi
11:00 PM
Fri, Jun 24
74 °FClear.1 mph71%30.04 "Hg11 mi
10:00 PM78 °FClear.1 mph60%30.04 "Hg12 mi
9:00 PM83 °FSunny.2 mph48%30.03 "Hg25 mi
Weather by CustomWeather, © 2016

See weather overviewHow to use our weather pages